Location: Dunedin
(45.8900°S, 170.5000°E)
Time: 22:04:06
(UTC+13:00)

ISS - Visible Passes

Search period start: 14 December 2024 00:00
Search period end: 24 December 2024 00:00
Orbit: 410 x 420 km, 51.6° (Epoch: 13 December)

Date Brightness Start Highest point End Pass type
(mag) Time Alt. Az. Time Alt. Az. Time Alt. Az.
14 Dec -2.1 00:47:54 10° WSW 00:51:04 34° S 00:54:14 10° E visible
14 Dec -3.4 02:24:37 10° WSW 02:27:23 55° W 02:27:23 55° W visible
14 Dec -2.1 22:21:31 10° W 22:24:45 38° SSW 22:27:58 10° SE visible
14 Dec -1.8 23:58:55 10° WSW 00:02:01 31° S 00:05:06 10° ESE visible
15 Dec -3.6 01:35:41 10° WSW 01:39:06 73° SSE 01:39:12 72° SE visible
15 Dec -1.7 23:09:51 10° WSW 23:12:55 29° S 23:15:58 10° ESE visible
16 Dec -3.0 00:46:46 10° WSW 00:50:07 51° SSE 00:51:20 32° E visible
16 Dec -1.3 02:23:39 10° WSW 02:24:09 13° W 02:24:09 13° W visible
16 Dec -1.7 22:20:42 10° WSW 22:23:47 30° S 22:26:52 10° ESE visible
16 Dec -2.4 23:57:47 10° SW 00:01:02 40° SSE 00:03:35 15° E visible
17 Dec -2.3 01:34:32 10° WSW 01:36:25 29° W 01:36:25 29° W visible
17 Dec -2.1 23:08:45 10° WSW 23:11:54 33° S 23:15:03 10° ESE visible
18 Dec -3.8 00:45:27 10° WSW 00:48:45 79° WNW 00:48:45 79° WNW visible
18 Dec -1.9 22:19:37 10° WSW 22:22:43 30° S 22:25:48 10° ESE visible
18 Dec -3.5 23:56:24 10° WSW 23:59:49 67° SSE 00:01:08 34° E visible
19 Dec -1.1 01:33:34 10° W 01:33:58 12° W 01:33:58 12° W visible
19 Dec -2.9 23:07:21 10° WSW 23:10:41 48° SSE 23:13:33 13° E visible
20 Dec -2.4 00:44:11 10° WSW 00:46:23 29° WNW 00:46:23 29° WNW visible
20 Dec -2.4 22:18:14 10° SW 22:21:28 38° SSE 22:24:41 10° E visible
20 Dec -3.7 23:54:57 10° WSW 23:58:19 58° NNW 23:58:49 51° N visible
21 Dec -3.8 23:05:46 10° WSW 23:09:12 89° SE 23:11:16 22° ENE visible
22 Dec -1.2 00:43:23 10° W 00:44:06 13° WNW 00:44:06 13° WNW visible
22 Dec -3.3 22:16:36 10° WSW 22:20:00 61° SSE 22:23:22 10° ENE visible
22 Dec -2.4 23:53:39 10° W 23:56:30 25° NW 23:56:34 25° NW visible
23 Dec -3.0 23:04:12 10° WSW 23:07:26 40° NW 23:09:04 23° NNE visible
